ASIASAT 5

Last updated on Tue Oct 28 2025 00:02:47 GMT+0000 (Coordinated Universal Time)

1 35696U 09042A 25300.49303968 -.00000296 00000+0 00000+0 0 9992 2 35696 0.0246 107.8162 0001631 95.2076 111.1064 1.00273015 59375
UTC large
Height (km)
Speed (km/s)
/
Latitude / Longitude
Inclination (degrees)
Orbital Period (minutes)
Azimuth
Elevation
Range (km)
Doppler Factor

Next 0 passes for location: London (51.5072 / 0.1276)

Sorry there are no passes over London.